Overview Statistics Trail Chart Weather Telemetry Raw packets
 

This is the latest recevied weather packets stored in our database for station/object KD0MAC. If no packets are shown the sender has not sent any weather packets the latest 10 day(s).

<< 56 57 58 59 60 61 62 >>
Time Temp. Humidity Pressure Rain* Wind** Luminosity Snow
1788378429 37.78° C 30% 1011.5 hPa 0 mm - 512 W/m² -
1788377529 37.78° C 29% 1011.5 hPa 0 mm - 520 W/m² -
1788376929 37.22° C 31% 1011.9 hPa 0 mm - 526 W/m² -
1788376330 36.67° C 32% 1011.9 hPa 0 mm - 530 W/m² -
1788376029 36.67° C 32% 1011.9 hPa 0 mm - 534 W/m² -
1788375731 36.67° C 33% 1012.2 hPa 0 mm - 534 W/m² -
1788375430 36.67° C 33% 1012.2 hPa 0 mm - 534 W/m² -
1788374830 36.67° C 31% 1012.2 hPa 0 mm - 535 W/m² -
1788374262 36.11° C 35% 1012.2 hPa 0 mm - 537 W/m² -
1788373930 36.67° C 32% 1012.5 hPa 0 mm - 537 W/m² -
1788373629 36.11° C 33% 1012.5 hPa 0 mm - 535 W/m² -
1788373330 36.11° C 33% 1012.5 hPa 0 mm - 535 W/m² -
1788373029 36.11° C 33% 1012.5 hPa 0 mm - 533 W/m² -
1788372729 36.11° C 33% 1012.5 hPa 0 mm - 528 W/m² -
1788372442 36.11° C 36% 1012.9 hPa 0 mm - 527 W/m² -
1788372131 36.11° C 33% 1012.9 hPa 0 mm - 524 W/m² -
1788371831 36.11° C 32% 1012.9 hPa 0 mm - 522 W/m² -
1788371530 35.56° C 35% 1012.9 hPa 0 mm - 517 W/m² -
1788371230 35.56° C 35% 1012.9 hPa 0 mm - 514 W/m² -
1788370930 35.56° C 34% 1012.9 hPa 0 mm - 511 W/m² -
1788370630 35.56° C 34% 1012.9 hPa 0 mm - 507 W/m² -
1788370335 35.56° C 35% 1013.2 hPa 0 mm - 535 W/m² -
1788370030 35.56° C 36% 1013.2 hPa 0 mm - 530 W/m² -
1788369730 35° C 34% 1013.2 hPa 0 mm - 522 W/m² -
1788369429 35° C 36% 1013.2 hPa 0 mm - 516 W/m² -

* Rain latest hour (hover to see other rain measurements)
** Current wind speed in m/s (hover to see current wind gust speed)